Regional Weather Roundup
Issued by NWS Kansas City/Pleasant Hill, MO

Home | Current Version | Previous Version | Text Only | Print | Product List | Glossary On
Versions: 1 2 3 4 5 6 7 8 9 10 11 12 13 14 15 16 17 18 19 20 21 22 23 24 25 26 27
000
ASUS43 KEAX 031810
RWREAX

WEATHER ROUNDUP FOR EASTERN KANSAS AND NORTHWEST MISSOURI
NATIONAL WEATHER SERVICE KANSAS CITY/PLEASANT HILL MO
1200 PM CST SAT DEC 03 2016

KSZ040-057-103>105-MOZ028-029-037-043-031900-
...KANSAS CITY METROPOLITAN AREA...

CITY           SKY/WX    TMP DP  RH WIND       PRES   REMARKS
K.C. INTL      NOT AVBL
K.C. DOWNTOWN  CLOUDY    47  30  51 E9        30.25F
6HR MIN TEMP:  32; 6HR MAX TEMP:  47;

LEES SUMMIT    NOT AVBL
OLATHE - IXD   CLOUDY    46  28  49 E12G18    30.23F
6HR MIN TEMP:  36; 6HR MAX TEMP:  46;

OLATHE - OJC   CLOUDY    44  28  53 E12       30.23F
6HR MIN TEMP:  34; 6HR MAX TEMP:  45;

LAWRENCE       CLOUDY    46  31  55 E13       30.24F

$$

MOZ001>008-011>017-020>025-030>033-038>040-044>046-053-054-031900-
...NORTHERN AND CENTRAL MISSOURI...

CITY           SKY/WX    TMP DP  RH WIND       PRES   REMARKS
ST. JOSEPH     CLOUDY    40  32  73 E7        30.27F
6HR MIN TEMP:  22; 6HR MAX TEMP:  40;

MOSBY          CLOUDY    43  32  65 E6        30.27F
WARRENSBURG    MOSUNNY   46  30  53 E8        30.27F
WHITEMAN AFB   MOSUNNY   48  32  53 S12       30.26F
6HR MIN TEMP:  30; 6HR MAX TEMP:  48;

CLINTON        CLOUDY    48  32  53 E8        30.27F
SEDALIA        CLOUDY    47  32  56 SE10      30.29F
6HR MIN TEMP:  32; 6HR MAX TEMP:  47;

WARSAW         NOT AVBL
CHILLICOTHE    NOT AVBL
KIRKSVILLE     CLOUDY    40  33  76 SE8       30.32F WCI  34
6HR MIN TEMP:  25; 6HR MAX TEMP:  41;


$$

MOZ041-047>049-056>058-063>065-088>090-097-031900-
...EASTERN AND SOUTHERN MISSOURI...

CITY           SKY/WX    TMP DP  RH WIND       PRES   REMARKS
ST. LOUIS INTL CLOUDY    44  29  55 SE9       30.36F
6HR MIN TEMP:  30; 6HR MAX TEMP:  44;

SPIRIT OF STL  CLOUDY    43  33  68 S6        30.35F
COLUMBIA       CLOUDY    44  31  60 SE9       30.30F
JEFFERSON CITY MOSUNNY   41  33  73 SE7       30.32F
ROLLA          CLOUDY    41  31  67 SE9       30.29F
OSAGE BEACH    CLOUDY    44  31  60 SE6       30.30F
SPRINGFIELD    PTSUNNY   48  30  49 SE17      30.24F
BRANSON        CLOUDY    45  32  61 SE9G16    30.26F
JOPLIN         CLOUDY    51  33  50 SE10      30.22F
WEST PLAINS    CLOUDY    43  32  65 E9        30.29F

$$

IAZ060-094-KSZ022-034>040-054-083-096-NEZ052-066-093-031900-
...KANSAS...SOUTHEAST NEBRASKA AND IOWA...

CITY           SKY/WX    TMP DP  RH WIND       PRES   REMARKS
TOPEKA         CLOUDY    43  31  62 E8        30.23F
6HR MIN TEMP:  29; 6HR MAX TEMP:  44;

MANHATTAN      LGT RAIN  38  32  79 E7        30.21F WCI  33
EMPORIA        CLOUDY    45  29  53 SE9       30.19F
CHANUTE        CLOUDY    51  34  52 S7        30.21F
OMAHA          CLOUDY    34  28  79 S9        30.29F WCI  27
LINCOLN        LGT SNOW  33  32  96 SE5       30.26F VSB 1   WCI  29
FALLS CITY     CLOUDY    37  32  82 E5        30.26F WCI  33
LAMONI         MOSUNNY   39  32  76 SE7       30.28F WCI  34
DES MOINES     CLOUDY    42  30  62 S9        30.30F

$$





USA.gov is the U.S. government's official web portal to all federal, state and local government web resources and services.